Погода в Исаевском

Россия / Ивановская область     57°00′51″N   39°41′52″E
темп.,
°C
ветер,
м/с
пор.,
м/с
влажн.,
%
обл.,
%
осадки,
мм/ч
давл.,
гПа
погр.,
м
6 мая, чт
чт600:00+6ююз379840 0.1 1008199
03:00+5ююз229753 0.1 100831
06:00+7юв379844 0.0 1007182
09:00+12ююв61181100 0.0 1006494
12:00+16ю81666100 0.0 10041894
15:00+15ююз101669100 0.3 10041726
18:00+13ююз101870100 0.3 10031440
21:00+10ююз91684100 0.5 10041134
7 мая, пт
пт700:00+7юз5984100 0.3 1006694
03:00+5ююз51192100 0.3 1008387
06:00+6юз5989100 0.0 1009597
09:00+9зюз68650 0.0 10101104
12:00+12зюз694892 0.0 10112279
15:00+13юз694191 0.0 10112613
18:00+12юз695882 0.0 10121039
21:00+7ю477597 0.1 1013116
8 мая, сб
сб800:00+7ююв41076100 0.0 1013214
03:00+7ююв51371100 0.0 1012328
06:00+8ююв71669100 0.0 1011518
09:00+9ююв81567100 0.0 1010837
12:00+12ююв91571100 0.2 10071568
15:00+9юв91687100 2.4 10051081
18:00+9ююв81695100 2.3 1002844
21:00+10ююз71295100 4.6 1001867
9 мая, вс
вс900:00+6юз81286100 1.3 1002711
03:00+5юз81486100 1.3 10031097
06:00+4зюз81387100 0.1 10061313
09:00+5зюз8128371 0.3 10091069
12:00+8зсз81065100 0.0 10131363
15:00+10зсз695586 0.0 10161953
18:00+10сз696212 0.1 1018838
21:00+5зсз35805 0.2 102270
10 мая, пн
пн1000:00+3сз33820 0.0 102426
03:00+3зсз22820 0.0 102610
06:00+5зюз11765 0.0 102848
09:00+10юз22563 0.0 1029470
12:00+13ююз23466 0.0 10291346
15:00+15юз234421 0.0 10291455
18:00+14ю23560 0.0 1028272
21:00+9ю33640 0.0 102925